This is the latest recevied weather packets stored in our database for station/object KB1JL-13. If no packets are shown the sender has not sent any weather packets the latest 10 day(s).
| Time | Temp. | Humidity | Pressure | Rain* | Wind** | Luminosity | Snow |
|---|---|---|---|---|---|---|---|
| 1777981150 | 11.67° C | 95% | 1023 hPa | 0 mm | - | 89 W/m² | - |
| 1777980847 | 11.67° C | 97% | 1023.4 hPa | 0 mm | - | 92 W/m² | - |
| 1777980543 | 11.11° C | 97% | 1023.4 hPa | 0 mm | - | 62 W/m² | - |
| 1777980241 | 11.11° C | 97% | 1023.4 hPa | 0 mm | - | 63 W/m² | - |
| 1777979937 | 11.11° C | 97% | 1023.4 hPa | 0 mm | - | 53 W/m² | - |
| 1777979632 | 11.11° C | 97% | 1023 hPa | 0 mm | - | 40 W/m² | - |
| 1777979328 | 11.11° C | 97% | 1023 hPa | 0 mm | - | 57 W/m² | - |
| 1777979026 | 11.11° C | 98% | 1022.6 hPa | 0 mm | - | 63 W/m² | - |
| 1777978722 | 10.56° C | 99% | 1022.6 hPa | 0 mm | - | 74 W/m² | - |
| 1777978418 | 10.56° C | 99% | 1022.6 hPa | 0 mm | - | 62 W/m² | - |
| 1777978114 | 10° C | 99% | 1022.6 hPa | 0 mm | - | 46 W/m² | - |
| 1777977812 | 10° C | 99% | 1022.6 hPa | 0 mm | - | 34 W/m² | - |
| 1777977508 | 10° C | 99% | 1022.6 hPa | 0 mm | - | 30 W/m² | - |
| 1777977206 | 10° C | 99% | 1022.6 hPa | 0 mm | - | 26 W/m² | - |
| 1777976903 | 10° C | 99% | 1022.2 hPa | 0 mm | - | 22 W/m² | - |
| 1777976600 | 9.44° C | 99% | 1022.2 hPa | 0 mm | - | 19 W/m² | - |
| 1777976296 | 9.44° C | 99% | 1022.6 hPa | 0 mm | - | 16 W/m² | - |
| 1777975991 | 9.44° C | 99% | 1021.9 hPa | 0 mm | - | 13 W/m² | - |
| 1777975687 | 9.44° C | 99% | 1021.9 hPa | 0 mm | - | 10 W/m² | - |
| 1777975384 | 9.44° C | 99% | 1022.2 hPa | 0 mm | - | 8 W/m² | - |
| 1777975079 | 9.44° C | 99% | 1021.9 hPa | 0 mm | - | 6 W/m² | - |
| 1777974777 | 9.44° C | 99% | 1022.2 hPa | 0 mm | - | 4 W/m² | - |
| 1777974472 | 9.44° C | 99% | 1021.9 hPa | 0 mm | - | 1 W/m² | - |
| 1777974170 | 10° C | 99% | 1021.9 hPa | 0 mm | - | 0 W/m² | - |
| 1777973865 | 10° C | 99% | 1021.9 hPa | 0 mm | - | 0 W/m² | - |
* Rain latest hour (hover to see other rain measurements)
** Current wind speed in m/s (hover to see current wind gust speed)